Location: Boiro
(42.6475°N, 8.8834°W)
Time: 07:34:36
(UTC+01:00)

SR - Pass Details

Date: 05 December 2021
Orbit: 583 x 872 km, 66.7° (Epoch: 16 January)

Event Time Altitude Azimuth Distance (km) Brightness Sun altitude
Rises 01:25:30 0° 231° (SW) 2,983 - -69.7°
Reaches altitude 10° 01:28:00 10° 239° (WSW) 2,031 - -69.7°
Maximum altitude 01:32:13 36° 307° (NW) 972 - -69.7°
Drops below altitude 10° 01:36:14 10° 15° (NNE) 1,936 - -69.6°
Sets 01:38:35 0° 24° (NNE) 2,824 - -69.6°
